Location: Nemiskam
(49.4820°N, 111.2775°W)
Time: 09:57:17
(UTC+00:00)

Envisat - Pass Details

Date: 27 November 2022
Orbit: 763 x 765 km, 98.2° (Epoch: 28 January)

Event Time Altitude Azimuth Distance (km) Brightness Sun altitude
Rises 13:03:18 0° 5° (N) 3,247 6.2 -17.4°
Reaches altitude 10° 13:05:57 10° 353° (N) 2,316 5.3 -17.0°
Enters shadow 13:09:52 25° 303° (WNW) 1,504 4.0 -16.4°
